QPF
0.00 0.00 0.00 0.00 0.00 0.00 0.00 0.00 0.00 0.00 0.00 0.00 0.00 0.00 0.00 0.01 0.01 0.02 0.02 0.03 0.05 0.06 0.08 0.10 0.14 0.16 0.21 0.29 0.37 0.52 0.69 0.80 0.81 0.81 0.85 0.82 0.69 0.61 0.55 0.47 0.38 0.28 0.23 0.19
0.00 0.00 0.00 0.00 0.00 0.00 0.00 0.00 0.00 0.00 0.00 0.00 0.00 0.00 0.01 0.01 0.02 0.02 0.03 0.04 0.05 0.06 0.07 0.10 0.12 0.13 0.18 0.26 0.35 0.50 0.66 0.66 0.62 0.62 0.66 0.62 0.52 0.43 0.37 0.32 0.23 0.15 0.11 0.10
0.00 0.00 0.00 0.00 0.00 0.00 0.00 0.00 0.00 0.00 0.00 0.00 0.00 0.00 0.01 0.01 0.02 0.02 0.02 0.03 0.05 0.07 0.08 0.08 0.10 0.12 0.14 0.18 0.26 0.35 0.39 0.39 0.41 0.44 0.43 0.39 0.34 0.28 0.23 0.18 0.15 0.12 0.10 0.08
0.00 0.00 0.00 0.00 0.00 0.00 0.00 0.00 0.00 0.00 0.00 0.00 0.00 0.00 0.01 0.02 0.02 0.02 0.02 0.04 0.05 0.06 0.07 0.10 0.12 0.14 0.13 0.12 0.12 0.14 0.17 0.19 0.18 0.18 0.20 0.21 0.18 0.15 0.15 0.15 0.14 0.14 0.13 0.11
0.00 0.00 0.00 0.00 0.00 0.00 0.00 0.00 0.00 0.00 0.00 0.00 0.00 0.00 0.01 0.02 0.03 0.02 0.03 0.04 0.04 0.04 0.06 0.06 0.07 0.07 0.07 0.06 0.06 0.06 0.07 0.08 0.09 0.10 0.11 0.13 0.14 0.13 0.15 0.16 0.18 0.20 0.18 0.13
0.01 0.01 0.01 0.00 0.00 0.00 0.00 0.00 0.00 0.00 0.00 0.00 0.00 0.00 0.01 0.02 0.02 0.03 0.03 0.03 0.04 0.04 0.05 0.05 0.05 0.04 0.04 0.04 0.04 0.04 0.04 0.05 0.06 0.08 0.10 0.11 0.12 0.13 0.14 0.15 0.15 0.14 0.14 0.11
0.01 0.01 0.01 0.00 0.00 0.00 0.00 0.00 0.00 0.00 0.00 0.00 0.00 0.01 0.01 0.02 0.02 0.02 0.02 0.03 0.03 0.03 0.03 0.03 0.04 0.03 0.03 0.03 0.03 0.03 0.03 0.03 0.04 0.05 0.07 0.08 0.09 0.10 0.10 0.11 0.13 0.12 0.12 0.11
0.01 0.01 0.01 0.01 0.01 0.00 0.01 0.01 0.01 0.01 0.01 0.01 0.01 0.01 0.01 0.01 0.01 0.01 0.02 0.02 0.01 0.01 0.01 0.01 0.01 0.01 0.01 0.01 0.01 0.01 0.01 0.02 0.02 0.02 0.03 0.03 0.04 0.05 0.06 0.07 0.08 0.08 0.09 0.09
0.00 0.01 0.01 0.00 0.01 0.01 0.01 0.01 0.02 0.02 0.01 0.01 0.01 0.01 0.01 0.01 0.01 0.01 0.01 0.01 0.01 0.01 0.00 0.00 0.00 0.00 0.00 0.00 0.00 0.00 0.00 0.00 0.00 0.00 0.01 0.01 0.01 0.01 0.02 0.02 0.03 0.04 0.05 0.05
0.00 0.00 0.00 0.00 0.01 0.01 0.01 0.01 0.01 0.02 0.01 0.01 0.01 0.02 0.02 0.02 0.02 0.01 0.01 0.01 0.00 0.00 0.00 0.00 0.00 0.00 0.00 0.00 0.00 0.00 0.00 0.00 0.00 0.00 0.00 0.00 0.00 0.00 0.00 0.00 0.01 0.01 0.02 0.03
0.00 0.00 0.00 0.00 0.00 0.00 0.00 0.01 0.01 0.01 0.02 0.02 0.02 0.02 0.03 0.03 0.02 0.01 0.01 0.00 0.00 0.00 0.00 0.00 0.00 0.00 0.00 0.00 0.00 0.00 0.00 0.00 0.00 0.00 0.00 0.00 0.00 0.00 0.00 0.00 0.00 0.00 0.00 0.01
0.00 0.00 0.00 0.00 0.00 0.00 0.01 0.01 0.01 0.02 0.02 0.03 0.01 0.01 0.02 0.01 0.01 0.00 0.00 0.00 0.00 0.00 0.00 0.00 0.00 0.00 0.00 0.00 0.00 0.00 0.00 0.00 0.00 0.00 0.00 0.00 0.00 0.00 0.00 0.00 0.00 0.00 0.00 0.00
0.00 0.00 0.00 0.00 0.00 0.00 0.01 0.01 0.01 0.02 0.02 0.01 0.01 0.01 0.00 0.00 0.00 0.00 0.00 0.00 0.00 0.00 0.00 0.00 0.00 0.00 0.00 0.00 0.00 0.00 0.00 0.00 0.00 0.00 0.00 0.00 0.00 0.00 0.00 0.00 0.00 0.00 0.00 0.00
0.00 0.00 0.00 0.00 0.00 0.00 0.01 0.01 0.01 0.01 0.01 0.01 0.00 0.00 0.00 0.00 0.00 0.00 0.00 0.00 0.00 0.00 0.00 0.00 0.00 0.00 0.00 0.00 0.00 0.00 0.00 0.00 0.00 0.00 0.00 0.00 0.00 0.00 0.00 0.00 0.00 0.00 0.00 0.00
0.00 0.00 0.00 0.00 0.00 0.00 0.00 0.00 0.00 0.00 0.00 0.00 0.00 0.00 0.00 0.00 0.00 0.00 0.00 0.00 0.00 0.00 0.00 0.00 0.00 0.00 0.00 0.00 0.00 0.00 0.00 0.00 0.00 0.00 0.00 0.00 0.00 0.00 0.00 0.00 0.00 0.00 0.00 0.00
0.00 0.00 0.00 0.00 0.00 0.00 0.00 0.00 0.00 0.00 0.00 0.00 0.00 0.00 0.00 0.00 0.00 0.00 0.00 0.00 0.00 0.00 0.00 0.00 0.00 0.00 0.00 0.00 0.00 0.00 0.00 0.00 0.00 0.00 0.00 0.00 0.00 0.00 0.00 0.00 0.00 0.00 0.00 0.00
0.01 0.01 0.00 0.00 0.00 0.00 0.00 0.00 0.00 0.00 0.00 0.00 0.00 0.00 0.00 0.00 0.00 0.00 0.00 0.00 0.00 0.00 0.00 0.00 0.00 0.00 0.00 0.00 0.00 0.00 0.00 0.00 0.00 0.00 0.00 0.00 0.01 0.00 0.00 0.00 0.00 0.00 0.00 0.00
0.02 0.01 0.00 0.00 0.00 0.00 0.00 0.00 0.00 0.00 0.00 0.00 0.00 0.00 0.00 0.00 0.00 0.00 0.00 0.00 0.00 0.00 0.00 0.00 0.00 0.00 0.00 0.00 0.00 0.00 0.00 0.00 0.01 0.00 0.00 0.01 0.01 0.01 0.01 0.01 0.01 0.01 0.01 0.00
0.01 0.01 0.00 0.00 0.00 0.00 0.00 0.00 0.00 0.00 0.00 0.00 0.00 0.00 0.00 0.00 0.00 0.00 0.00 0.00 0.00 0.00 0.00 0.00 0.00 0.00 0.00 0.00 0.00 0.00 0.00 0.01 0.01 0.01 0.01 0.02 0.02 0.03 0.03 0.02 0.02 0.01 0.01 0.01
0.00 0.00 0.00 0.00 0.00 0.00 0.00 0.00 0.00 0.00 0.00 0.00 0.00 0.00 0.00 0.00 0.00 0.00 0.00 0.00 0.00 0.00 0.00 0.00 0.00 0.00 0.00 0.00 0.00 0.01 0.01 0.01 0.01 0.02 0.02 0.03 0.03 0.03 0.03 0.03 0.03 0.02 0.02 0.01
0.00 0.00 0.00 0.00 0.00 0.00 0.00 0.00 0.00 0.00 0.00 0.00 0.00 0.00 0.00 0.00 0.00 0.00 0.00 0.00 0.00 0.00 0.00 0.00 0.00 0.00 0.00 0.00 0.01 0.01 0.01 0.02 0.02 0.02 0.02 0.03 0.04 0.04 0.04 0.04 0.03 0.03 0.03 0.02
0.00 0.00 0.00 0.00 0.00 0.00 0.00 0.00 0.00 0.00 0.00 0.00 0.00 0.00 0.00 0.00 0.00 0.00 0.00 0.00 0.00 0.00 0.00 0.00 0.00 0.00 0.00 0.01 0.01 0.02 0.02 0.02 0.02 0.03 0.03 0.03 0.04 0.05 0.05 0.05 0.04 0.04 0.04 0.04
0.00 0.00 0.00 0.00 0.00 0.00 0.00 0.00 0.00 0.00 0.00 0.00 0.00 0.00 0.00 0.00 0.00 0.00 0.00 0.00 0.00 0.00 0.00 0.00 0.00 0.00 0.00 0.01 0.01 0.03 0.03 0.03 0.04 0.04 0.04 0.04 0.04 0.05 0.06 0.06 0.05 0.04 0.03 0.03
0.00 0.00 0.00 0.00 0.00 0.00 0.00 0.00 0.00 0.00 0.00 0.00 0.00 0.00 0.00 0.00 0.00 0.00 0.00 0.00 0.00 0.00 0.00 0.00 0.00 0.00 0.01 0.01 0.01 0.03 0.04 0.05 0.05 0.05 0.04 0.04 0.05 0.05 0.05 0.05 0.05 0.04 0.04 0.03
0.00 0.00 0.00 0.00 0.00 0.00 0.00 0.00 0.00 0.00 0.00 0.00 0.00 0.00 0.00 0.00 0.00 0.00 0.00 0.00 0.00 0.00 0.00 0.00 0.00 0.01 0.01 0.01 0.02 0.03 0.04 0.04 0.05 0.05 0.05 0.05 0.05 0.05 0.05 0.06 0.06 0.05 0.04 0.04
0.00 0.00 0.00 0.00 0.00 0.00 0.00 0.00 0.00 0.00 0.00 0.00 0.00 0.00 0.00 0.00 0.00 0.00 0.00 0.00 0.00 0.00 0.00 0.00 0.00 0.01 0.01 0.02 0.02 0.03 0.03 0.04 0.05 0.06 0.06 0.05 0.05 0.05 0.06 0.06 0.05 0.05 0.04 0.04
MSLP
1010.49 1011.19 1011.65 1011.90 1011.99 1012.04 1012.13 1012.34 1012.70 1013.20 1013.77 1014.33 1014.78 1015.06 1015.12 1014.97 1014.66 1014.25 1013.81 1013.42 1013.10 1012.88 1012.75 1012.68 1012.64 1012.59 1012.53 1012.44 1012.32 1012.19 1012.03 1011.85 1011.62 1011.33 1010.97 1010.55 1010.08 1009.60 1009.17 1008.85 1008.69 1008.71 1008.92 1009.29
1010.71 1011.27 1011.59 1011.73 1011.76 1011.80 1011.95 1012.27 1012.79 1013.45 1014.19 1014.88 1015.44 1015.77 1015.85 1015.68 1015.31 1014.84 1014.33 1013.87 1013.49 1013.22 1013.03 1012.90 1012.80 1012.70 1012.59 1012.47 1012.34 1012.22 1012.11 1011.99 1011.84 1011.64 1011.36 1010.99 1010.54 1010.05 1009.56 1009.14 1008.85 1008.75 1008.83 1009.10
1010.73 1011.11 1011.29 1011.32 1011.32 1011.38 1011.61 1012.06 1012.73 1013.56 1014.43 1015.23 1015.84 1016.20 1016.27 1016.06 1015.65 1015.13 1014.59 1014.10 1013.71 1013.42 1013.23 1013.08 1012.96 1012.82 1012.68 1012.52 1012.37 1012.25 1012.16 1012.09 1012.02 1011.91 1011.72 1011.42 1011.03 1010.55 1010.04 1009.56 1009.18 1008.95 1008.91 1009.05
1010.62 1010.82 1010.85 1010.80 1010.78 1010.90 1011.24 1011.83 1012.66 1013.62 1014.60 1015.47 1016.11 1016.46 1016.49 1016.24 1015.79 1015.24 1014.69 1014.22 1013.85 1013.60 1013.43 1013.30 1013.17 1013.02 1012.84 1012.63 1012.44 1012.29 1012.19 1012.14 1012.12 1012.08 1011.97 1011.76 1011.44 1011.01 1010.52 1010.01 1009.58 1009.26 1009.10 1009.12
1010.52 1010.53 1010.44 1010.33 1010.32 1010.51 1010.97 1011.71 1012.68 1013.76 1014.82 1015.73 1016.37 1016.68 1016.65 1016.35 1015.85 1015.29 1014.75 1014.31 1013.99 1013.80 1013.68 1013.59 1013.47 1013.30 1013.07 1012.81 1012.56 1012.34 1012.20 1012.14 1012.12 1012.12 1012.08 1011.96 1011.72 1011.37 1010.92 1010.44 1009.99 1009.62 1009.38 1009.28
1010.54 1010.38 1010.18 1010.04 1010.07 1010.35 1010.94 1011.82 1012.90 1014.07 1015.18 1016.08 1016.68 1016.93 1016.84 1016.47 1015.94 1015.36 1014.83 1014.43 1014.18 1014.04 1013.98 1013.92 1013.81 1013.62 1013.35 1013.02 1012.68 1012.39 1012.18 1012.06 1012.03 1012.04 1012.05 1012.00 1011.85 1011.58 1011.22 1010.79 1010.36 1009.98 1009.69 1009.51
1010.75 1010.47 1010.19 1010.04 1010.12 1010.50 1011.20 1012.18 1013.35 1014.57 1015.68 1016.54 1017.08 1017.25 1017.07 1016.63 1016.06 1015.47 1014.96 1014.59 1014.38 1014.30 1014.27 1014.24 1014.14 1013.93 1013.60 1013.20 1012.78 1012.40 1012.10 1011.92 1011.85 1011.86 1011.89 1011.89 1011.82 1011.64 1011.37 1011.02 1010.64 1010.29 1009.98 1009.77
1011.17 1010.80 1010.50 1010.37 1010.50 1010.96 1011.74 1012.79 1013.99 1015.20 1016.27 1017.06 1017.51 1017.58 1017.32 1016.81 1016.20 1015.59 1015.08 1014.74 1014.56 1014.50 1014.50 1014.48 1014.36 1014.12 1013.76 1013.30 1012.81 1012.34 1011.97 1011.73 1011.61 1011.59 1011.63 1011.66 1011.65 1011.55 1011.37 1011.11 1010.80 1010.50 1010.22 1010.01
1011.72 1011.33 1011.04 1010.96 1011.15 1011.66 1012.48 1013.55 1014.72 1015.87 1016.85 1017.54 1017.88 1017.85 1017.51 1016.95 1016.30 1015.67 1015.17 1014.83 1014.65 1014.60 1014.60 1014.56 1014.43 1014.17 1013.77 1013.27 1012.73 1012.22 1011.80 1011.50 1011.34 1011.29 1011.31 1011.35 1011.37 1011.33 1011.21 1011.03 1010.80 1010.56 1010.34 1010.16
1012.30 1011.96 1011.74 1011.71 1011.96 1012.51 1013.32 1014.34 1015.44 1016.47 1017.32 1017.88 1018.10 1017.98 1017.57 1016.97 1016.31 1015.68 1015.17 1014.83 1014.64 1014.57 1014.54 1014.48 1014.32 1014.04 1013.62 1013.12 1012.57 1012.04 1011.59 1011.26 1011.06 1010.97 1010.96 1010.98 1011.00 1010.97 1010.89 1010.77 1010.60 1010.43 1010.27 1010.14
1012.80 1012.58 1012.46 1012.52 1012.82 1013.37 1014.14 1015.06 1016.02 1016.91 1017.60 1018.01 1018.12 1017.92 1017.48 1016.87 1016.21 1015.60 1015.10 1014.75 1014.54 1014.43 1014.36 1014.26 1014.07 1013.77 1013.36 1012.86 1012.33 1011.82 1011.37 1011.03 1010.79 1010.66 1010.59 1010.56 1010.54 1010.49 1010.41 1010.31 1010.19 1010.08 1009.98 1009.91
1013.17 1013.10 1013.12 1013.28 1013.63 1014.16 1014.85 1015.64 1016.43 1017.14 1017.66 1017.93 1017.94 1017.69 1017.24 1016.66 1016.04 1015.47 1015.00 1014.65 1014.41 1014.26 1014.13 1013.97 1013.75 1013.43 1013.03 1012.56 1012.06 1011.58 1011.15 1010.80 1010.54 1010.34 1010.21 1010.10 1009.99 1009.89 1009.77 1009.66 1009.56 1009.49 1009.45 1009.45
1013.41 1013.52 1013.69 1013.95 1014.34 1014.84 1015.43 1016.06 1016.67 1017.18 1017.53 1017.68 1017.61 1017.34 1016.92 1016.40 1015.86 1015.35 1014.92 1014.58 1014.32 1014.11 1013.92 1013.71 1013.43 1013.10 1012.70 1012.25 1011.79 1011.34 1010.94 1010.58 1010.27 1010.01 1009.78 1009.56 1009.36 1009.16 1008.99 1008.84 1008.73 1008.69 1008.70 1008.77
1013.57 1013.86 1014.18 1014.54 1014.95 1015.40 1015.88 1016.35 1016.78 1017.10 1017.30 1017.33 1017.21 1016.95 1016.59 1016.16 1015.71 1015.29 1014.91 1014.59 1014.31 1014.05 1013.79 1013.50 1013.18 1012.81 1012.40 1011.96 1011.53 1011.10 1010.70 1010.33 1009.97 1009.63 1009.29 1008.96 1008.64 1008.34 1008.09 1007.89 1007.78 1007.75 1007.80 1007.92
1013.75 1014.20 1014.64 1015.07 1015.48 1015.87 1016.24 1016.56 1016.80 1016.96 1017.02 1016.97 1016.82 1016.59 1016.30 1015.97 1015.64 1015.31 1015.00 1014.69 1014.39 1014.08 1013.75 1013.38 1012.98 1012.56 1012.12 1011.68 1011.25 1010.83 1010.42 1010.01 1009.60 1009.17 1008.74 1008.29 1007.86 1007.46 1007.13 1006.89 1006.75 1006.73 1006.82 1006.98
1014.05 1014.60 1015.11 1015.57 1015.96 1016.29 1016.53 1016.70 1016.79 1016.80 1016.75 1016.64 1016.48 1016.29 1016.08 1015.86 1015.63 1015.39 1015.13 1014.85 1014.52 1014.15 1013.74 1013.29 1012.81 1012.33 1011.85 1011.38 1010.93 1010.49 1010.06 1009.61 1009.14 1008.63 1008.11 1007.57 1007.04 1006.57 1006.18 1005.90 1005.75 1005.74 1005.84 1006.03
1014.50 1015.09 1015.62 1016.06 1016.40 1016.63 1016.76 1016.80 1016.75 1016.65 1016.51 1016.35 1016.20 1016.05 1015.92 1015.79 1015.65 1015.48 1015.26 1014.98 1014.62 1014.19 1013.70 1013.16 1012.60 1012.05 1011.51 1011.00 1010.52 1010.05 1009.59 1009.10 1008.58 1008.02 1007.42 1006.82 1006.23 1005.71 1005.28 1004.99 1004.83 1004.83 1004.94 1005.15
1015.09 1015.64 1016.12 1016.49 1016.75 1016.88 1016.90 1016.82 1016.67 1016.48 1016.28 1016.09 1015.95 1015.84 1015.76 1015.70 1015.62 1015.50 1015.30 1015.00 1014.61 1014.12 1013.55 1012.93 1012.29 1011.66 1011.06 1010.51 1009.99 1009.50 1009.01 1008.49 1007.94 1007.34 1006.71 1006.08 1005.47 1004.93 1004.49 1004.20 1004.04 1004.04 1004.15 1004.35
1015.72 1016.17 1016.54 1016.81 1016.96 1016.99 1016.90 1016.73 1016.50 1016.25 1016.02 1015.82 1015.69 1015.61 1015.57 1015.54 1015.49 1015.38 1015.18 1014.86 1014.42 1013.87 1013.23 1012.54 1011.83 1011.15 1010.50 1009.91 1009.36 1008.85 1008.34 1007.81 1007.24 1006.64 1006.01 1005.37 1004.77 1004.24 1003.82 1003.53 1003.38 1003.37 1003.47 1003.64
1016.26 1016.56 1016.80 1016.94 1016.97 1016.89 1016.73 1016.49 1016.22 1015.94 1015.70 1015.52 1015.39 1015.33 1015.31 1015.30 1015.25 1015.12 1014.89 1014.54 1014.05 1013.44 1012.75 1012.01 1011.26 1010.53 1009.85 1009.23 1008.67 1008.14 1007.63 1007.10 1006.54 1005.95 1005.33 1004.72 1004.14 1003.63 1003.23 1002.95 1002.80 1002.77 1002.85 1002.99
1016.58 1016.73 1016.80 1016.81 1016.73 1016.57 1016.35 1016.09 1015.81 1015.55 1015.33 1015.16 1015.06 1015.02 1015.00 1014.97 1014.90 1014.75 1014.48 1014.08 1013.55 1012.90 1012.17 1011.39 1010.61 1009.86 1009.17 1008.54 1007.97 1007.43 1006.92 1006.40 1005.85 1005.28 1004.69 1004.10 1003.55 1003.06 1002.68 1002.40 1002.24 1002.19 1002.23 1002.32
1016.61 1016.59 1016.52 1016.41 1016.24 1016.04 1015.80 1015.55 1015.31 1015.09 1014.91 1014.79 1014.72 1014.69 1014.66 1014.62 1014.51 1014.32 1014.00 1013.56 1012.99 1012.31 1011.56 1010.77 1009.98 1009.22 1008.52 1007.89 1007.31 1006.77 1006.26 1005.74 1005.20 1004.64 1004.07 1003.50 1002.97 1002.50 1002.12 1001.83 1001.66 1001.58 1001.57 1001.62
1016.31 1016.15 1015.97 1015.76 1015.55 1015.33 1015.12 1014.92 1014.75 1014.61 1014.50 1014.44 1014.40 1014.38 1014.35 1014.28 1014.14 1013.90 1013.54 1013.06 1012.46 1011.77 1011.01 1010.22 1009.43 1008.68 1007.98 1007.34 1006.75 1006.20 1005.66 1005.13 1004.59 1004.02 1003.45 1002.89 1002.36 1001.89 1001.50 1001.20 1001.00 1000.89 1000.85 1000.87
1015.73 1015.47 1015.20 1014.96 1014.73 1014.54 1014.39 1014.28 1014.20 1014.16 1014.14 1014.14 1014.15 1014.15 1014.11 1014.01 1013.83 1013.55 1013.15 1012.65 1012.03 1011.33 1010.57 1009.79 1009.01 1008.26 1007.56 1006.90 1006.29 1005.70 1005.14 1004.57 1003.99 1003.41 1002.82 1002.24 1001.70 1001.22 1000.82 1000.50 1000.28 1000.14 1000.08 1000.09
1014.95 1014.62 1014.33 1014.08 1013.89 1013.76 1013.70 1013.69 1013.73 1013.79 1013.86 1013.93 1013.98 1013.99 1013.94 1013.82 1013.60 1013.29 1012.86 1012.34 1011.71 1011.02 1010.27 1009.50 1008.73 1007.97 1007.25 1006.56 1005.91 1005.27 1004.65 1004.02 1003.40 1002.77 1002.15 1001.55 1000.99 1000.50 1000.09 999.76 999.53 999.39 999.33 999.35
1014.07 1013.73 1013.44 1013.22 1013.10 1013.06 1013.10 1013.21 1013.35 1013.51 1013.66 1013.79 1013.87 1013.89 1013.83 1013.68 1013.44 1013.09 1012.65 1012.11 1011.49 1010.81 1010.07 1009.31 1008.54 1007.77 1007.02 1006.28 1005.57 1004.86 1004.16 1003.47 1002.78 1002.10 1001.45 1000.83 1000.26 999.77 999.36 999.04 998.83 998.70 998.67 998.72
Thickness
5766 5751 5743 5748 5751 5754 5752 5746 5741 5748 5757 5745 5735 5733 5738 5746 5750 5751 5750 5750 5749 5749 5749 5749 5748 5747 5746 5743 5740 5737 5731 5731 5730 5725 5721 5716 5713 5713 5714 5714 5714 5715 5716 5716
5748 5745 5759 5765 5762 5754 5749 5742 5740 5746 5751 5741 5729 5727 5732 5737 5738 5739 5739 5739 5739 5739 5740 5740 5738 5737 5734 5731 5728 5727 5723 5723 5722 5720 5716 5710 5708 5708 5708 5708 5709 5710 5712 5712
5746 5756 5770 5767 5760 5754 5750 5745 5745 5742 5742 5738 5730 5719 5722 5727 5731 5732 5731 5731 5730 5729 5727 5726 5726 5725 5723 5722 5718 5717 5715 5712 5712 5712 5710 5707 5704 5704 5703 5703 5704 5705 5707 5707
5753 5764 5766 5762 5759 5758 5746 5759 5756 5747 5731 5717 5723 5702 5712 5716 5716 5718 5718 5718 5717 5716 5716 5714 5713 5712 5712 5712 5710 5707 5705 5704 5705 5705 5703 5700 5697 5695 5695 5696 5698 5699 5701 5700
5749 5760 5759 5755 5760 5763 5756 5758 5750 5741 5728 5712 5709 5700 5702 5710 5706 5706 5708 5708 5707 5705 5704 5703 5703 5703 5703 5703 5701 5698 5697 5696 5695 5695 5694 5692 5689 5689 5689 5689 5690 5691 5692 5693
5754 5765 5764 5762 5767 5766 5760 5748 5735 5721 5711 5697 5701 5698 5695 5701 5703 5702 5702 5702 5700 5698 5696 5695 5695 5695 5694 5694 5692 5690 5689 5687 5686 5685 5683 5681 5679 5679 5680 5679 5679 5680 5681 5682
5741 5754 5763 5767 5759 5757 5749 5726 5702 5698 5686 5689 5700 5695 5695 5706 5707 5703 5700 5697 5695 5692 5689 5687 5687 5686 5685 5684 5682 5681 5679 5676 5675 5673 5671 5670 5669 5668 5668 5667 5667 5668 5668 5669
5724 5725 5752 5760 5755 5747 5740 5726 5698 5686 5681 5686 5694 5690 5698 5707 5706 5703 5699 5694 5691 5687 5683 5680 5679 5678 5676 5675 5674 5671 5668 5665 5663 5660 5658 5657 5656 5654 5653 5653 5653 5653 5653 5655
5725 5727 5753 5759 5759 5752 5736 5718 5716 5693 5687 5679 5684 5692 5700 5702 5698 5695 5691 5688 5683 5680 5677 5674 5673 5670 5667 5665 5663 5660 5656 5653 5650 5648 5645 5642 5641 5639 5638 5637 5637 5637 5638 5639
5738 5727 5740 5750 5753 5746 5737 5719 5700 5687 5676 5672 5682 5682 5681 5690 5688 5687 5684 5680 5677 5674 5670 5668 5665 5661 5658 5654 5651 5647 5643 5640 5638 5635 5631 5629 5626 5624 5622 5620 5619 5619 5620 5621
5741 5723 5725 5733 5726 5722 5725 5716 5695 5680 5679 5669 5665 5672 5688 5684 5683 5679 5677 5674 5669 5666 5663 5660 5657 5653 5648 5643 5638 5633 5629 5625 5623 5620 5618 5614 5612 5608 5605 5602 5602 5601 5601 5602
5733 5716 5708 5719 5730 5732 5725 5713 5699 5685 5676 5668 5661 5665 5685 5681 5678 5675 5670 5667 5663 5659 5655 5651 5646 5641 5635 5629 5624 5619 5615 5610 5607 5605 5602 5599 5596 5592 5588 5586 5586 5584 5583 5583
5731 5712 5695 5698 5707 5716 5712 5708 5696 5683 5670 5661 5656 5665 5679 5674 5670 5667 5663 5658 5654 5650 5645 5639 5633 5626 5621 5616 5611 5606 5602 5597 5594 5590 5586 5583 5580 5577 5576 5574 5573 5571 5569 5569
5734 5707 5697 5691 5696 5704 5702 5700 5696 5683 5666 5662 5663 5665 5668 5664 5661 5658 5654 5649 5644 5638 5632 5625 5619 5613 5608 5603 5598 5593 5589 5585 5581 5576 5572 5568 5567 5565 5565 5564 5562 5560 5559 5558
5730 5708 5707 5705 5708 5706 5699 5695 5691 5683 5676 5664 5665 5662 5661 5658 5654 5650 5645 5639 5633 5627 5621 5614 5608 5603 5597 5592 5587 5582 5577 5573 5568 5563 5559 5557 5556 5554 5553 5551 5551 5551 5550 5550
5720 5707 5704 5700 5702 5699 5691 5689 5687 5682 5676 5669 5663 5657 5661 5656 5648 5641 5635 5629 5623 5617 5612 5607 5600 5594 5588 5582 5577 5572 5566 5561 5555 5550 5547 5545 5542 5541 5540 5540 5540 5540 5541 5541
5710 5703 5692 5685 5693 5690 5678 5683 5682 5678 5673 5665 5654 5655 5655 5648 5641 5633 5628 5623 5615 5609 5604 5598 5591 5585 5578 5572 5565 5559 5555 5549 5543 5538 5535 5532 5530 5529 5528 5529 5529 5530 5531 5532
5709 5694 5680 5678 5680 5671 5679 5691 5686 5677 5671 5666 5659 5654 5649 5642 5637 5629 5622 5615 5608 5602 5596 5589 5583 5576 5569 5562 5556 5549 5544 5538 5532 5528 5524 5521 5518 5517 5516 5516 5517 5518 5520 5521
5713 5698 5680 5670 5670 5672 5680 5685 5679 5668 5662 5664 5655 5649 5643 5638 5630 5625 5621 5613 5603 5595 5588 5581 5575 5568 5560 5553 5547 5541 5535 5529 5523 5518 5514 5511 5508 5506 5504 5504 5505 5507 5508 5511
5705 5697 5681 5669 5669 5661 5675 5686 5683 5668 5653 5659 5652 5643 5635 5626 5614 5617 5616 5606 5597 5589 5581 5574 5568 5561 5553 5547 5539 5532 5527 5520 5514 5509 5504 5501 5497 5495 5494 5494 5495 5496 5498 5501
5696 5684 5674 5667 5664 5666 5681 5683 5676 5652 5650 5657 5648 5639 5630 5618 5610 5610 5604 5595 5588 5581 5574 5568 5560 5553 5546 5540 5532 5525 5518 5512 5506 5500 5495 5491 5488 5485 5485 5485 5485 5486 5488 5491
5689 5679 5670 5659 5659 5663 5684 5677 5664 5659 5659 5653 5646 5638 5629 5619 5612 5605 5597 5590 5582 5576 5570 5563 5555 5549 5542 5534 5525 5518 5511 5505 5498 5492 5488 5484 5481 5479 5480 5478 5478 5479 5480 5482
5687 5685 5676 5671 5671 5680 5680 5677 5673 5663 5655 5650 5642 5635 5625 5616 5607 5600 5592 5584 5577 5571 5565 5558 5550 5544 5538 5529 5520 5512 5507 5500 5494 5488 5484 5480 5477 5475 5473 5472 5472 5472 5473 5476
5693 5685 5678 5675 5678 5680 5679 5676 5671 5663 5655 5648 5640 5630 5622 5611 5602 5593 5586 5579 5573 5567 5561 5554 5547 5541 5535 5527 5518 5510 5504 5497 5491 5486 5481 5477 5473 5471 5469 5467 5467 5468 5469 5471
5694 5686 5678 5675 5679 5679 5676 5671 5667 5660 5653 5644 5636 5627 5617 5608 5598 5590 5582 5576 5569 5564 5557 5550 5543 5537 5531 5525 5518 5510 5502 5495 5489 5484 5480 5475 5471 5468 5466 5465 5464 5465 5467 5469
5689 5685 5678 5676 5682 5673 5672 5671 5665 5656 5649 5641 5632 5623 5613 5604 5595 5587 5579 5572 5566 5560 5554 5548 5542 5535 5530 5524 5517 5510 5502 5494 5488 5484 5479 5474 5470 5467 5465 5463 5463 5463 5464 5467